WZZ201 EGGW-LRBV

Flight info

Callsign WZZ201
Flight time N/A
Altitude 37000
Route MATCH Q295 BRAIN M197 REDFA DCT TACHA DCT TIVUN DCT ESAMA DCT OSBIT DCT BOREP DCT ENITA DCT IPDUL DCT PEPIK DCT UVERA DCT BUDOP DCT NERDI DCT ZULOC DCT LEBAT
Aircraft A21N/M-SDE2E3FGHIRWXY/LB1

Departure

Time N/A
Airport London Luton Airport (EGGW)

Arrival

Time 2026-04-29 20:41
Airport Brașov-Ghimbav International Airport (LRBV)
Time Latitude Longitude Altitude Speed Heading
2026-04-29 19:55 47.42122 19.98208 36557 ft 498 kts 128°
2026-04-29 19:56 47.40148 20.02201 35763 ft 502 kts 129°
2026-04-29 19:56 47.38082 20.06369 35038 ft 503 kts 129°
2026-04-29 19:56 47.36042 20.10478 34326 ft 504 kts 129°
2026-04-29 19:56 47.33964 20.14654 33462 ft 506 kts 130°
2026-04-29 19:57 47.31877 20.18842 32602 ft 508 kts 130°
2026-04-29 19:57 47.30462 20.21676 32006 ft 509 kts 131°
2026-04-29 19:57 47.27675 20.27253 30870 ft 511 kts 131°
2026-04-29 19:57 47.25562 20.31475 29853 ft 516 kts 132°
2026-04-29 19:58 47.23422 20.35742 28740 ft 519 kts 131°
2026-04-29 19:58 47.21280 20.40017 27814 ft 519 kts 131°
2026-04-29 19:58 47.19152 20.44305 26906 ft 519 kts 130°
2026-04-29 19:58 47.17098 20.48586 25987 ft 519 kts 129°
2026-04-29 19:59 47.15046 20.52944 25067 ft 519 kts 128°
2026-04-29 19:59 47.13000 20.57321 24156 ft 519 kts 128°
2026-04-29 19:59 47.10968 20.61670 23294 ft 515 kts 128°
2026-04-29 19:59 47.08950 20.65974 22481 ft 508 kts 128°
2026-04-29 20:00 47.06954 20.70213 21700 ft 502 kts 128°
2026-04-29 20:00 47.04979 20.74384 20932 ft 495 kts 128°
2026-04-29 20:00 47.03022 20.78499 20210 ft 488 kts 127°
2026-04-29 20:00 47.01091 20.82547 19499 ft 482 kts 127°
2026-04-29 20:01 46.99181 20.86542 18790 ft 475 kts 127°
2026-04-29 20:01 46.97322 20.90422 18051 ft 469 kts 127°
2026-04-29 20:01 46.95462 20.94300 17260 ft 462 kts 127°
2026-04-29 20:01 46.93626 20.98124 16487 ft 456 kts 127°
2026-04-29 20:02 46.91816 21.01888 15761 ft 449 kts 127°
2026-04-29 20:02 46.90038 21.05581 15335 ft 438 kts 127°
2026-04-29 20:02 46.88281 21.09218 15242 ft 438 kts 127°
2026-04-29 20:02 46.87116 21.11624 15231 ft 438 kts 127°
2026-04-29 20:03 46.84761 21.16485 15233 ft 438 kts 127°
2026-04-29 20:03 46.82997 21.20122 15224 ft 438 kts 127°
2026-04-29 20:03 46.81260 21.23702 15222 ft 438 kts 127°
2026-04-29 20:03 46.79501 21.27326 15223 ft 437 kts 127°
2026-04-29 20:04 46.77745 21.30941 15222 ft 436 kts 127°
2026-04-29 20:04 46.75989 21.34549 15220 ft 436 kts 127°
2026-04-29 20:04 46.74232 21.38155 15220 ft 436 kts 127°
2026-04-29 20:04 46.72474 21.41757 15219 ft 436 kts 127°
2026-04-29 20:05 46.70717 21.45352 15217 ft 436 kts 127°
2026-04-29 20:05 46.68909 21.48897 15217 ft 435 kts 130°
2026-04-29 20:05 46.66991 21.52302 15216 ft 435 kts 131°
2026-04-29 20:05 46.65034 21.55658 15215 ft 435 kts 133°
2026-04-29 20:06 46.63082 21.58937 15214 ft 434 kts 133°
2026-04-29 20:06 46.61095 21.62237 15214 ft 434 kts 133°
2026-04-29 20:06 46.59101 21.65532 15214 ft 433 kts 133°
2026-04-29 20:06 46.57111 21.68817 15211 ft 433 kts 133°
2026-04-29 20:07 46.55118 21.72108 15196 ft 433 kts 133°
2026-04-29 20:07 46.53129 21.75395 15207 ft 434 kts 133°
2026-04-29 20:07 46.51137 21.78687 15209 ft 434 kts 133°
2026-04-29 20:07 46.49142 21.81982 15207 ft 434 kts 133°
2026-04-29 20:08 46.47151 21.85269 15206 ft 434 kts 133°
2026-04-29 20:08 46.45834 21.87443 15207 ft 433 kts 133°
2026-04-29 20:08 46.43203 21.91780 15205 ft 432 kts 133°
2026-04-29 20:08 46.41216 21.95048 15206 ft 432 kts 133°
2026-04-29 20:09 46.39226 21.98317 15208 ft 432 kts 133°
2026-04-29 20:09 46.37239 22.01577 15207 ft 432 kts 133°
2026-04-29 20:09 46.35248 22.04839 15204 ft 432 kts 133°
2026-04-29 20:09 46.33256 22.08100 15203 ft 432 kts 133°
2026-04-29 20:10 46.31263 22.11359 15204 ft 432 kts 133°
2026-04-29 20:10 46.29274 22.14607 15200 ft 432 kts 134°
2026-04-29 20:10 46.27312 22.17809 15198 ft 431 kts 134°
2026-04-29 20:10 46.25325 22.21048 15203 ft 431 kts 134°
2026-04-29 20:11 46.23331 22.24290 15200 ft 431 kts 134°
2026-04-29 20:11 46.21343 22.27522 15201 ft 431 kts 134°
2026-04-29 20:11 46.19350 22.30756 15200 ft 431 kts 134°
2026-04-29 20:11 46.17356 22.33988 15196 ft 431 kts 134°
2026-04-29 20:12 46.15363 22.37218 15198 ft 431 kts 134°
2026-04-29 20:12 46.13368 22.40447 15198 ft 431 kts 134°
2026-04-29 20:12 46.11369 22.43676 15204 ft 431 kts 134°
2026-04-29 20:12 46.09373 22.46898 15197 ft 431 kts 134°
2026-04-29 20:13 46.07401 22.50077 15201 ft 431 kts 134°
2026-04-29 20:13 46.06051 22.52252 15194 ft 431 kts 134°
2026-04-29 20:13 46.03404 22.56509 15194 ft 431 kts 134°
2026-04-29 20:13 46.01402 22.59722 15190 ft 431 kts 134°
2026-04-29 20:14 45.99403 22.62926 15198 ft 431 kts 134°
2026-04-29 20:14 45.97400 22.66136 15196 ft 431 kts 134°
2026-04-29 20:14 45.95397 22.69343 15191 ft 431 kts 134°
2026-04-29 20:14 45.93396 22.72545 15191 ft 431 kts 134°
2026-04-29 20:15 45.91413 22.75713 15192 ft 432 kts 134°
2026-04-29 20:15 45.89400 22.78924 15181 ft 433 kts 134°
2026-04-29 20:15 45.87386 22.82132 15188 ft 432 kts 134°
2026-04-29 20:15 45.85375 22.85334 15185 ft 432 kts 134°
2026-04-29 20:16 45.83358 22.88539 15191 ft 433 kts 134°
2026-04-29 20:16 45.81343 22.91737 15187 ft 433 kts 134°
2026-04-29 20:16 45.79326 22.94937 15186 ft 433 kts 134°
2026-04-29 20:16 45.77307 22.98136 15188 ft 432 kts 134°
2026-04-29 20:17 45.75311 23.01293 15181 ft 434 kts 135°
2026-04-29 20:17 45.73281 23.04499 15191 ft 435 kts 135°
2026-04-29 20:17 45.71252 23.07701 15184 ft 435 kts 135°
2026-04-29 20:17 45.69219 23.10908 15182 ft 435 kts 135°
2026-04-29 20:18 45.67186 23.14110 15186 ft 435 kts 135°
2026-04-29 20:18 45.65152 23.17310 15187 ft 434 kts 135°
2026-04-29 20:18 45.63121 23.20497 15185 ft 434 kts 135°
2026-04-29 20:18 45.61084 23.23689 15202 ft 434 kts 135°
2026-04-29 20:19 45.59050 23.26877 15193 ft 435 kts 135°
2026-04-29 20:19 45.57008 23.30072 15179 ft 437 kts 135°
2026-04-29 20:19 45.54955 23.33281 15194 ft 437 kts 135°
2026-04-29 20:19 45.52931 23.36443 15195 ft 438 kts 135°
2026-04-29 20:20 45.50880 23.39646 15194 ft 438 kts 135°
2026-04-29 20:20 45.48825 23.42851 15196 ft 438 kts 135°
2026-04-29 20:20 45.46770 23.46051 15191 ft 438 kts 135°
2026-04-29 20:20 45.44714 23.49248 15193 ft 438 kts 135°
2026-04-29 20:21 45.42658 23.52440 15180 ft 438 kts 135°
2026-04-29 20:21 45.40598 23.55634 15194 ft 438 kts 135°
2026-04-29 20:21 45.38537 23.58828 15193 ft 438 kts 135°
2026-04-29 20:21 45.36479 23.62014 15191 ft 438 kts 135°
2026-04-29 20:22 45.34481 23.65197 15177 ft 439 kts 130°
2026-04-29 20:22 45.32805 23.68827 15191 ft 441 kts 118°
2026-04-29 20:22 45.31700 23.72891 15193 ft 441 kts 104°
2026-04-29 20:22 45.31244 23.77191 15200 ft 440 kts 94°
2026-04-29 20:23 45.31100 23.81532 15196 ft 440 kts 90°
2026-04-29 20:23 45.31114 23.85876 15180 ft 439 kts 88°
2026-04-29 20:23 45.31198 23.90219 15188 ft 440 kts 87°
2026-04-29 20:23 45.31302 23.94565 15184 ft 440 kts 86°
2026-04-29 20:24 45.31676 23.98866 15129 ft 437 kts 77°
2026-04-29 20:24 45.32385 24.02957 14520 ft 430 kts 72°
2026-04-29 20:24 45.33223 24.07016 13770 ft 425 kts 71°
2026-04-29 20:24 45.34094 24.11006 12942 ft 421 kts 70°
2026-04-29 20:25 45.34971 24.14951 12123 ft 417 kts 71°
2026-04-29 20:25 45.35833 24.18855 11354 ft 411 kts 72°
2026-04-29 20:25 45.36684 24.22709 10574 ft 406 kts 72°
2026-04-29 20:25 45.37526 24.26519 9843 ft 401 kts 72°
2026-04-29 20:26 45.38345 24.30239 9336 ft 386 kts 72°
2026-04-29 20:26 45.39123 24.33789 9213 ft 364 kts 73°
2026-04-29 20:26 45.39837 24.37070 9194 ft 340 kts 73°
2026-04-29 20:26 45.40512 24.40177 9196 ft 318 kts 73°
2026-04-29 20:27 45.41145 24.43084 9192 ft 299 kts 72°
2026-04-29 20:27 45.41559 24.44971 9194 ft 292 kts 72°
2026-04-29 20:27 45.42360 24.48620 9196 ft 293 kts 72°
2026-04-29 20:27 45.42966 24.51387 9189 ft 293 kts 72°
2026-04-29 20:28 45.43572 24.54157 9194 ft 293 kts 73°
2026-04-29 20:28 45.44177 24.56932 9198 ft 293 kts 73°
2026-04-29 20:28 45.44780 24.59701 9199 ft 293 kts 73°
2026-04-29 20:28 45.45375 24.62436 9197 ft 293 kts 73°
2026-04-29 20:29 45.45978 24.65209 9199 ft 293 kts 73°
2026-04-29 20:29 45.46579 24.67981 9197 ft 293 kts 73°
2026-04-29 20:29 45.47180 24.70754 9197 ft 293 kts 73°
2026-04-29 20:29 45.47779 24.73526 9208 ft 293 kts 73°
2026-04-29 20:30 45.48379 24.76300 9197 ft 292 kts 73°
2026-04-29 20:30 45.48975 24.79068 9204 ft 293 kts 73°
2026-04-29 20:30 45.49572 24.81841 9193 ft 292 kts 73°
2026-04-29 20:30 45.50168 24.84612 9195 ft 292 kts 73°
2026-04-29 20:31 45.50765 24.87390 9210 ft 293 kts 73°
2026-04-29 20:31 45.51352 24.90121 9200 ft 292 kts 73°
2026-04-29 20:31 45.51945 24.92887 9203 ft 291 kts 73°
2026-04-29 20:31 45.52535 24.95645 9204 ft 291 kts 73°
2026-04-29 20:32 45.53125 24.98405 9204 ft 291 kts 73°
2026-04-29 20:32 45.53714 25.01160 9203 ft 291 kts 73°
2026-04-29 20:32 45.54303 25.03919 9205 ft 291 kts 73°
2026-04-29 20:32 45.54694 25.05752 9200 ft 291 kts 73°
2026-04-29 20:33 45.55479 25.09442 9198 ft 291 kts 73°
2026-04-29 20:33 45.56064 25.12200 9214 ft 291 kts 73°
2026-04-29 20:33 45.56642 25.14925 9209 ft 291 kts 73°
2026-04-29 20:33 45.57226 25.17689 9207 ft 291 kts 73°
2026-04-29 20:34 45.57811 25.20450 9210 ft 291 kts 73°
2026-04-29 20:34 45.58394 25.23212 9209 ft 293 kts 73°
2026-04-29 20:34 45.58956 25.25887 8982 ft 295 kts 74°
2026-04-29 20:34 45.59543 25.28682 8983 ft 293 kts 73°
2026-04-29 20:35 45.60137 25.31509 8115 ft 303 kts 73°
2026-04-29 20:35 45.60740 25.34388 9645 ft 300 kts 74°
2026-04-29 20:35 45.61272 25.37111 9254 ft 278 kts 75°
2026-04-29 20:35 45.61736 25.39758 7941 ft 284 kts 77°
2026-04-29 20:36 45.61847 25.42659 6488 ft 299 kts 99°
2026-04-29 20:36 45.61252 25.45494 5046 ft 299 kts 115°
2026-04-29 20:36 45.60247 25.47990 4556 ft 271 kts 130°
2026-04-29 20:36 45.58873 25.49557 4557 ft 243 kts 156°
2026-04-29 20:37 45.57363 25.49808 4942 ft 199 kts 198°
2026-04-29 20:37 45.56483 25.48603 5003 ft 176 kts 250°
2026-04-29 20:37 45.56714 25.46840 4274 ft 195 kts 309°
2026-04-29 20:37 45.57834 25.45910 3688 ft 187 kts 355°
2026-04-29 20:38 45.59056 25.45976 3454 ft 167 kts
2026-04-29 20:38 45.60148 25.46181 3274 ft 154 kts 13°
2026-04-29 20:38 45.61190 25.46435 3086 ft 151 kts 12°
2026-04-29 20:38 45.62199 25.46759 2923 ft 145 kts 17°
2026-04-29 20:39 45.63229 25.47079 3160 ft 169 kts 14°
2026-04-29 20:39 45.64485 25.47410 3473 ft 198 kts 13°
2026-04-29 20:39 45.65844 25.47845 3214 ft 186 kts 20°
2026-04-29 20:39 45.66963 25.48575 2669 ft 171 kts 31°
2026-04-29 20:40 45.67908 25.49482 2325 ft 157 kts 38°
2026-04-29 20:40 45.68736 25.50373 2020 ft 147 kts 39°
2026-04-29 20:40 45.69508 25.51186 1838 ft 130 kts 37°
2026-04-29 20:40 45.70178 25.51915 1809 ft 105 kts 36°
2026-04-29 20:41 45.70679 25.52427 1769 ft 74 kts 38°
2026-04-29 20:41 45.71037 25.52836 1770 ft 60 kts 34°
2026-04-29 20:41 45.71362 25.53153 1772 ft 54 kts 31°
2026-04-29 20:41 45.71583 25.53365 1772 ft 25 kts 35°
2026-04-29 20:42 45.71635 25.53403 1771 ft 1 kts 300°
2026-04-29 20:42 45.71634 25.53397 1774 ft 0 kts 259°
2026-04-29 20:42 45.71614 25.53372 1771 ft 12 kts 216°
2026-04-29 20:42 45.71499 25.53258 1769 ft 25 kts 214°
2026-04-29 20:43 45.71335 25.53095 1768 ft 31 kts 215°
2026-04-29 20:43 45.71142 25.52902 1769 ft 36 kts 214°
2026-04-29 20:43 45.70930 25.52686 1771 ft 39 kts 215°
2026-04-29 20:43 45.70702 25.52444 1770 ft 42 kts 217°
2026-04-29 20:44 45.70459 25.52186 1773 ft 44 kts 216°
2026-04-29 20:44 45.70206 25.51921 1811 ft 46 kts 216°
2026-04-29 20:44 45.69947 25.51648 1808 ft 47 kts 217°
2026-04-29 20:44 45.69711 25.51398 1812 ft 40 kts 216°
2026-04-29 20:45 45.69591 25.51327 1813 ft 8 kts 152°
2026-04-29 20:45 45.69548 25.51409 1811 ft 21 kts 125°
2026-04-29 20:45 45.69490 25.51556 1812 ft 8 kts 125°
2026-04-29 20:45 45.69459 25.51606 1812 ft 0 kts 127°